Torna al catalogo

COSMOS 2251 DEB

AttivoLEO
NORAD 37108·DEBRIS·🇷🇺 Russia

Lanciato Jun 16, 1993 da Plesetsk Cosmodrome

Loading…

Prossimi Passaggi (prossime 24 ore)

TLE

In scadenzaSource: Space-Track

Epoca: Sep 12, 2026, 02:36 UTC

1 37108U 93036BGE 26255.10842552  .00001744  00000-0  50233-3 0  9999
2 37108  74.0411 293.7133 0094295 301.6827  57.5160 14.42947010894481

Traccia COSMOS 2251 DEB in tempo reale con AllMySat

Download on the App Store